When you browse on this site, cookies collect data to enhance your experience and personalize the content and advertising you see.
Visit our Privacy Policy to learn more. By continuing to use the site, you agree to this use of cookies and data.
  • En España
  • Lista de países
  • Para 7 días
  • Temperatura del agua
  • Mapa Satelital
  • El tiempo en el mapa
  • Informadores
  • user-avatar
    Iniciar sesión

    Tiempo cada hora Al Hudaydah

    Hoy, 25 Junio, Martes

    Tiempo Temperatura Precipitaciones Viento Presión Humedad
    00:00 +37°C° 0 mm 2 mps 750 mmHg 44%
    01:00 +37°C° 0 mm 2 mps 749 mmHg 47%
    02:00 +36°C° 0 mm 2 mps 749 mmHg 51%
    03:00 +36°C° 0 mm 3 mps 748 mmHg 53%
    04:00 +35°C° 0 mm 2 mps 749 mmHg 57%
    05:00 +35°C° 0 mm 2 mps 749 mmHg 61%
    06:00 +33°C° 0 mm 1 mps 750 mmHg 65%
    07:00 +35°C° 0 mm 2 mps 750 mmHg 60%
    08:00 +36°C° 0 mm 3 mps 751 mmHg 55%
    09:00 +39°C° 0 mm 5 mps 751 mmHg 50%
    10:00 +40°C° 0 mm 5 mps 751 mmHg 46%
    11:00 +41°C° 0 mm 5 mps 751 mmHg 42%
    12:00 +42°C° 0 mm 4 mps 750 mmHg 38%
    13:00 +42°C° 0 mm 4 mps 750 mmHg 35%
    14:00 +42°C° 0 mm 5 mps 749 mmHg 33%
    15:00 +42°C° 0 mm 5 mps 749 mmHg 30%
    16:00 +42°C° 0 mm 4 mps 749 mmHg 31%
    17:00 +41°C° 0 mm 4 mps 749 mmHg 31%
    18:00 +40°C° 0 mm 3 mps 750 mmHg 31%
    19:00 +39°C° 0 mm 3 mps 750 mmHg 32%
    20:00 +39°C° 0 mm 3 mps 750 mmHg 34%
    21:00 +38°C° 0 mm 3 mps 751 mmHg 36%
    22:00 +38°C° 0 mm 2 mps 751 mmHg 36%
    23:00 +38°C° 0 mm 2 mps 751 mmHg 36%

    Mañana, 26 Junio, Miércoles

    Tiempo Temperatura Precipitaciones Viento Presión Humedad
    00:00 +37°C° 0 mm 1 mps 751 mmHg 36%
    01:00 +37°C° 0 mm 1 mps 750 mmHg 37%
    02:00 +37°C° 0 mm 2 mps 749 mmHg 38%
    03:00 +36°C° 0 mm 2 mps 749 mmHg 38%
    04:00 +35°C° 0 mm 1 mps 749 mmHg 39%
    05:00 +35°C° 0 mm 1 mps 750 mmHg 40%
    06:00 +35°C° 0 mm 1 mps 750 mmHg 42%
    07:00 +36°C° 0 mm 1 mps 751 mmHg 40%
    08:00 +38°C° 0 mm 2 mps 751 mmHg 39%
    09:00 +39°C° 0 mm 3 mps 751 mmHg 38%
    10:00 +40°C° 0 mm 3 mps 750 mmHg 35%
    11:00 +42°C° 0 mm 4 mps 750 mmHg 33%
    12:00 +43°C° 0 mm 4 mps 750 mmHg 31%
    13:00 +45°C° 0 mm 5 mps 749 mmHg 30%
    14:00 +45°C° 0 mm 5 mps 749 mmHg 30%
    15:00 +45°C° 0 mm 6 mps 748 mmHg 29%
    16:00 +44°C° 0 mm 6 mps 748 mmHg 31%
    17:00 +42°C° 0 mm 5 mps 748 mmHg 32%
    18:00 +41°C° 0 mm 5 mps 748 mmHg 34%
    19:00 +40°C° 0 mm 4 mps 748 mmHg 36%
    20:00 +40°C° 0 mm 4 mps 749 mmHg 37%
    21:00 +38°C° 0 mm 3 mps 750 mmHg 38%
    22:00 +38°C° 0 mm 3 mps 749 mmHg 40%
    23:00 +37°C° 0 mm 4 mps 749 mmHg 42%

    Pasado mañana, 27 Junio, Jueves

    Tiempo Temperatura Precipitaciones Viento Presión Humedad
    00:00 +37°C° 0 mm 4 mps 749 mmHg 43%
    01:00 +37°C° 0 mm 4 mps 748 mmHg 46%
    02:00 +36°C° 0 mm 3 mps 748 mmHg 49%
    03:00 +36°C° 0 mm 3 mps 747 mmHg 52%
    04:00 +35°C° 0 mm 3 mps 748 mmHg 55%
    05:00 +35°C° 0 mm 3 mps 748 mmHg 58%
    06:00 +34°C° 0 mm 3 mps 748 mmHg 61%
    07:00 +35°C° 0 mm 3 mps 748 mmHg 56%
    08:00 +37°C° 0 mm 4 mps 748 mmHg 51%
    09:00 +38°C° 0 mm 4 mps 748 mmHg 45%
    10:00 +40°C° 0 mm 4 mps 748 mmHg 40%
    11:00 +42°C° 0 mm 4 mps 748 mmHg 35%
    12:00 +43°C° 0 mm 4 mps 747 mmHg 30%
    13:00 +43°C° 0 mm 5 mps 747 mmHg 32%
    14:00 +44°C° 0 mm 6 mps 746 mmHg 33%
    15:00 +43°C° 0 mm 7 mps 746 mmHg 35%
    16:00 +41°C° 0 mm 7 mps 746 mmHg 37%
    17:00 +41°C° 0 mm 6 mps 746 mmHg 39%
    18:00 +40°C° 0 mm 6 mps 746 mmHg 41%
    19:00 +39°C° 0 mm 6 mps 746 mmHg 45%
    20:00 +37°C° 0 mm 5 mps 746 mmHg 48%
    21:00 +37°C° 0 mm 5 mps 747 mmHg 52%
    22:00 +36°C° 0 mm 4 mps 747 mmHg 53%
    23:00 +36°C° 0 mm 3 mps 746 mmHg 55%

    28 Junio, Viernes

    Tiempo Temperatura Precipitaciones Viento Presión Humedad
    00:00 +36°C° 0 mm 2 mps 746 mmHg 56%
    01:00 +36°C° 0 mm 2 mps 746 mmHg 57%
    02:00 +35°C° 0 mm 2 mps 745 mmHg 59%
    03:00 +35°C° 0 mm 2 mps 744 mmHg 60%
    04:00 +34°C° 0 mm 2 mps 745 mmHg 65%
    05:00 +34°C° 0 mm 2 mps 745 mmHg 70%
    06:00 +33°C° 0 mm 3 mps 746 mmHg 75%
    07:00 +34°C° 0 mm 3 mps 746 mmHg 69%
    08:00 +36°C° 0 mm 4 mps 747 mmHg 63%
    09:00 +37°C° 0 mm 4 mps 747 mmHg 58%
    10:00 +39°C° 0 mm 5 mps 747 mmHg 52%
    11:00 +41°C° 0 mm 5 mps 747 mmHg 47%
    12:00 +42°C° 0 mm 5 mps 746 mmHg 41%
    13:00 +42°C° 0 mm 6 mps 746 mmHg 41%
    14:00 +42°C° 0 mm 6 mps 745 mmHg 41%
    15:00 +42°C° 0 mm 6 mps 745 mmHg 40%
    16:00 +41°C° 0 mm 6 mps 745 mmHg 41%
    17:00 +41°C° 0 mm 6 mps 745 mmHg 41%
    18:00 +40°C° 0 mm 5 mps 745 mmHg 41%
    19:00 +40°C° 0 mm 4 mps 746 mmHg 43%
    20:00 +38°C° 0 mm 4 mps 746 mmHg 45%
    21:00 +38°C° 0 mm 3 mps 747 mmHg 47%
    22:00 +37°C° 0 mm 2 mps 746 mmHg 49%
    23:00 +37°C° 0 mm 2 mps 746 mmHg 51%

    29 Junio, Sábado

    Tiempo Temperatura Precipitaciones Viento Presión Humedad
    00:00 +36°C° 0 mm 1 mps 746 mmHg 53%
    01:00 +36°C° 0 mm 2 mps 746 mmHg 55%
    02:00 +36°C° 0 mm 2 mps 746 mmHg 57%
    03:00 +35°C° 0 mm 2 mps 746 mmHg 59%
    04:00 +35°C° 0 mm 3 mps 746 mmHg 61%
    05:00 +35°C° 0 mm 4 mps 747 mmHg 63%
    06:00 +34°C° 0 mm 5 mps 747 mmHg 65%
    07:00 +35°C° 0 mm 5 mps 748 mmHg 60%
    08:00 +38°C° 0 mm 6 mps 748 mmHg 55%
    09:00 +39°C° 0 mm 6 mps 749 mmHg 50%
    10:00 +40°C° 0 mm 5 mps 749 mmHg 45%
    11:00 +41°C° 0 mm 5 mps 748 mmHg 40%
    12:00 +42°C° 0 mm 5 mps 748 mmHg 35%
    13:00 +42°C° 0 mm 5 mps 748 mmHg 36%
    14:00 +42°C° 0 mm 6 mps 747 mmHg 37%
    15:00 +42°C° 0 mm 6 mps 747 mmHg 37%
    16:00 +41°C° 0 mm 7 mps 747 mmHg 40%
    17:00 +40°C° 0 mm 7 mps 747 mmHg 43%
    18:00 +39°C° 0 mm 7 mps 747 mmHg 45%
    19:00 +39°C° 0 mm 6 mps 747 mmHg 47%
    20:00 +37°C° 0 mm 5 mps 748 mmHg 49%
    21:00 +37°C° 0 mm 5 mps 748 mmHg 51%
    22:00 +37°C° 0 mm 4 mps 748 mmHg 50%
    23:00 +37°C° 0 mm 3 mps 748 mmHg 49%

    30 Junio, Domingo

    Tiempo Temperatura Precipitaciones Viento Presión Humedad
    00:00 +37°C° 0 mm 2 mps 748 mmHg 49%
    01:00 +37°C° 0 mm 2 mps 747 mmHg 49%
    02:00 +36°C° 0 mm 3 mps 747 mmHg 49%
    03:00 +36°C° 0 mm 3 mps 747 mmHg 49%
    04:00 +36°C° 0 mm 2 mps 747 mmHg 49%
    05:00 +36°C° 0 mm 2 mps 748 mmHg 49%
    06:00 +35°C° 0 mm 1 mps 748 mmHg 49%
    07:00 +37°C° 0 mm 2 mps 748 mmHg 48%
    08:00 +38°C° 0 mm 2 mps 749 mmHg 46%
    09:00 +39°C° 0 mm 2 mps 749 mmHg 44%
    10:00 +40°C° 0 mm 3 mps 749 mmHg 40%
    11:00 +43°C° 0 mm 4 mps 749 mmHg 35%
    12:00 +45°C° 0 mm 5 mps 749 mmHg 31%
    13:00 +45°C° 0 mm 7 mps 748 mmHg 30%
    14:00 +45°C° 0 mm 9 mps 748 mmHg 30%
    15:00 +46°C° 0 mm 11 mps 747 mmHg 30%
    16:00 +44°C° 0 mm 10 mps 747 mmHg 33%
    17:00 +42°C° 0 mm 10 mps 747 mmHg 36%
    18:00 +40°C° 0 mm 10 mps 747 mmHg 39%
    19:00 +40°C° 0 mm 9 mps 748 mmHg 41%
    20:00 +39°C° 0 mm 8 mps 748 mmHg 42%
    21:00 +39°C° 0 mm 8 mps 749 mmHg 43%
    22:00 +39°C° 0 mm 7 mps 748 mmHg 44%
    23:00 +37°C° 0 mm 5 mps 748 mmHg 45%
    Mostrar más